Meknes, Morocco

12:22 PM WET on June 24, 2017 (GMT +0000)
Meknes

Weather History for GMFM - November, 2013

Change the Weather History Date:

Monday, November 25, 2013

  Actual Average (GMFF) Record (GMFF)
Temperature  
Mean Temperature 52 °F -  
Max Temperature 59 °F 61 °F 74 °F (2012)
Min Temperature 42 °F 43 °F 35 °F (1998)
Degree Days  
Heating Degree Days 14    
Growing Degree Days 2 (Base 50)    
Moisture  
Dew Point 42 °F    
Average Humidity 74    
Maximum Humidity 100    
Minimum Humidity 43    
Precipitation  
Precipitation 0.00 in 0.11 in - ()
Sea Level Pressure  
Sea Level Pressure 29.98 in    
Wind  
Wind Speed 5 mph ()    
Max Wind Speed 13 mph    
Max Gust Speed -    
Visibility 4.1 miles    
Events      
Averages and records for this station are not official NWS values.
T = Trace of Precipitation, MM = Missing Value Source: Averaged Metar Reports

Daily Weather History Graph

Daily Weather History Graph

Search for Another Location

Airport or City:

Trip Planner

Search our weather history database for the weather conditions in past years. The results will help you decide how hot, cold, wet, or windy it might be!

Date:

Astronomy

Nov. 25, 2013 Rise Set
Actual Time 7:03 AM WET 5:14 PM WET
Civil Twilight 6:36 AM WET 5:41 PM WET
Nautical Twilight 6:06 AM WET 6:11 PM WET
Astronomical Twilight 5:36 AM WET 6:41 PM WET
Moon No Moon Rise 12:24 PM WET (11/25)
Length of Visible Light 11h 04m
Length of Day
10h 10m
Waning Gibbous, 53% of the Moon is Illuminated
Nov 25
Waning Gibbous
Nov 25
Last Quarter
Dec 3
New
Dec 9
First Quarter
Dec 17
Full

Hourly Weather History & Observations

Time (WET) Temp. Windchill Dew Point Humidity Pressure Visibility Wind Dir Wind Speed Gust Speed Precip Events Conditions
12:00 AM 49 °F - 47 °F 92% 29.94 in 3 mi SW 3.5 mph - -   Mostly Cloudy
12:00 AM 50.0 °F - 48.2 °F 94% 29.92 in 3.1 mi SW 3.5 mph - N/A   Scattered Clouds
12:50 AM 48.2 °F - 48.2 °F 100% 29.92 in 1.2 mi SSW 4.6 mph - N/A   Scattered Clouds
1:00 AM 48.2 °F - 48.2 °F 100% 29.92 in 1.2 mi SSW 4.6 mph - N/A   Scattered Clouds
2:00 AM 48.2 °F - 48.2 °F 100% 29.92 in 1.2 mi SSE 2.3 mph - N/A   Scattered Clouds
3:00 AM 49 °F - 48 °F 93% 29.93 in 2 mi SW 2.3 mph - -   Mist
3:00 AM 50.0 °F - 48.2 °F 94% 29.92 in 1.2 mi SW 2.3 mph - N/A   Scattered Clouds
5:00 AM 50.0 °F - 48.2 °F 94% 29.92 in 1.9 mi East 2.3 mph - N/A   Scattered Clouds
6:00 AM 49 °F - 47 °F 91% 29.95 in 2 mi ENE 2.3 mph - -   Mist
6:00 AM 50.0 °F - 46.4 °F 87% 29.95 in 1.9 mi ENE 2.3 mph - N/A   Scattered Clouds
6:15 AM 50.0 °F - 46.4 °F 87% 29.95 in 3.7 mi East 3.5 mph - N/A   Scattered Clouds
7:00 AM 46.4 °F 45.2 °F 44.6 °F 93% 29.95 in 3.7 mi East 3.5 mph - N/A   Scattered Clouds
8:00 AM 46.4 °F 45.2 °F 44.6 °F 93% 29.98 in 5.0 mi East 3.5 mph - N/A   Scattered Clouds
9:00 AM 48 °F - 45 °F 84% 30.01 in 5 mi East 4.6 mph - -   Mostly Cloudy
9:00 AM 48.2 °F - 44.6 °F 87% 30.01 in 5.0 mi East 4.6 mph - N/A   Scattered Clouds
10:00 AM 50.0 °F - 46.4 °F 87% 30.01 in 3.7 mi East 8.1 mph - N/A   Mostly Cloudy
11:00 AM 53.6 °F - 46.4 °F 77% 30.01 in 5.0 mi ENE 8.1 mph - N/A   Scattered Clouds
12:00 PM 56 °F - 46 °F 59% 29.98 in 6 mi NE 11.5 mph - -   Partly Cloudy
12:00 PM 55.4 °F - 46.4 °F 72% 29.98 in 6.2 mi NE 11.5 mph - N/A   Scattered Clouds
1:00 PM 59.0 °F - 44.6 °F 59% 29.98 in 6.2 mi NE 11.5 mph - N/A   Scattered Clouds
2:00 PM 59.0 °F - 42.8 °F 55% 29.98 in 6.2 mi ENE 12.7 mph - N/A   Scattered Clouds
3:00 PM 58 °F - 42 °F 43% 29.95 in 6 mi ENE 12.7 mph - -   Scattered Clouds
3:00 PM 59.0 °F - 41.0 °F 51% 29.98 in 6.2 mi ENE 12.7 mph - N/A   Partly Cloudy
4:00 PM 57.2 °F - 41.0 °F 55% 29.98 in 6.2 mi ENE 11.5 mph - N/A   Partly Cloudy
5:00 PM 53.6 °F - 37.4 °F 54% 30.01 in 6.2 mi ENE 11.5 mph - N/A   Partly Cloudy
6:00 PM 50 °F - 38 °F 53% 30.03 in 6 mi ENE 6.9 mph - -  
6:00 PM 50.0 °F - 37.4 °F 62% 30.01 in - ENE 6.9 mph - N/A   Clear
7:00 PM 48.2 °F - 35.6 °F 62% 30.04 in - East 5.8 mph - N/A   Clear
8:00 PM 46.4 °F 42.4 °F 32.0 °F 57% 30.04 in - East 8.1 mph - N/A   Clear
9:00 PM 45 °F - 30 °F 43% 30.08 in 6 mi East 9.2 mph - -  
9:00 PM 44.6 °F 39.7 °F 30.2 °F 57% 30.04 in - East 9.2 mph - N/A   Clear
10:00 PM 44.6 °F 40.7 °F 30.2 °F 57% 30.04 in - East 6.9 mph - N/A   Clear
11:00 PM 42.8 °F 38.6 °F 30.2 °F 61% 30.04 in - East 6.9 mph - N/A   Clear